ARIANE 2 DEB, 28565

Orbit data source: Space-Track

ARIANE 2 DEB, 28565 is space debris in HEO originally from a launch on Fri, 27 Jan 1989 UTC launched from the French Guiana (FRGUI). Debris objects in space refer to the collection of defunct objects orbiting the Earth. Examples of debris include non-operational satellites, rocket bodies, and fragments generated from explosions, collisions, or faulty payload assembly.

Loading next visibility...
ARIANE 2 DEB details
Identifier
28565, 1989-006AG
Orbit
HEO
Last TLE update2 days ago
Origin
Flag of FRArianespace (FR)
ManufacturerEADS/LV
MissionSpacecraft
Bus & MotorUnknown
MassUnknown
Launch date (UTC)
1989-01-27 (36 years ago)
Launch vehicleUnknown
Launch site
French Guiana (FRGUI)
Object type
Payload
Rocket body
Debris
Shape & HBRUnknown
Radar Cross SectionMedium (>0.1 m² and <1 m²)

Expand to show TLE details & history

TLE from 2 days ago
0 ARIANE 2 DEB
1 28565U 89006AG  24359.82825489  .00001614  00000-0  93333-2 0  9993
2 28565   7.6927 167.6095 7101304 259.9793  20.0712  2.38130571177707
Epoch: 2024-12-24T19:52Z
Definitive object data (Epoch: 2024-12-24T19:52:41.222Z)
Latitude-0.00018°
Longitude135.49052°
Altitude6,968.68 km
Speed6.55 km/s
True Right ascension11h 09m 58s
True Declination0° 00' 01"
Sunlit
Object was in daylight at TLE epoch
Visualization TLE readout
Latitude7.57137°
Longitude-125.39453°
Altitude29,746.328 km
Speed2.289 km/s
Apparent Right ascension17h 44m 16s
Apparent Declination1° 15' 58"
Sunlit
Object is in daylight
Visualization observer readout
Local Sidereal Time18:00:05
Azimuth186.317° SSW
Elevation51.183°
Doppler factor1
Orbital elements
Apogee altitude34,140.013 km
Perigee altitude489.749 km
Semi-major axis23,693.018 km
Eccentricity0.7101304
Inclination7.6927°
RAAN167.6095°
Arg. of periapsis259.9793°
True anomaly99.95838°
Mean anomaly20.0712°
Eccentric anomaly52.23649°
Mean motion0.59513 °/min
BSTAR0.0093333
Orbital period604.91 mins
Loading maneuver chart data...
Loading historical data...
Loading historical data...
Loading historical data...
Loading historical data...
Loading historical data...
Loading historical data...
Loading historical data...

ARIANE 2 DEB Visibility forecast

Observer location: undefined°, undefined

Span
Click to sort rows by Start time (UTC) header in descending order
Start Az.
Max El. time (UTC)
Max El. Az.
Max El.
End time (UTC)
End Az.
158 mins2024-12-26 18:37:33.788Z186.314° SSW2024-12-26 18:37:33.788Z186.314° SSW37.916°2024-12-26 21:15:33.788Z138.772° SSE
291 mins2024-12-27 11:52:33.788Z96.749° ESE2024-12-27 15:11:33.788Z110.266° ESE21.566°2024-12-27 16:43:33.788Z107.369° ESE
|